Location: Bratsk-Energetik
(56.3300°N, 101.7600°E)
Time: 07:31:20
(UTC+08:00)

ISS - Pass Details

Date: 21 July 2018
Orbit: 402 x 408 km, 51.6° (Epoch: 22 July)

Event Time Altitude Azimuth Distance (km) Brightness Sun altitude
Rises 22:43:13 0° 216° (SW) 2,315 -0.2 -6.5°
Reaches altitude 10° 22:45:44 10° 196° (SSW) 1,459 -1.4 -6.7°
Maximum altitude 22:47:59 18° 153° (SSE) 1,094 -2.3 -6.9°
Drops below altitude 10° 22:50:16 10° 109° (ESE) 1,466 -1.5 -7.1°
Sets 22:52:48 0° 89° (E) 2,331 -0.3 -7.3°
